Main page
Satellite images Climate Cyclones Lightning AirportsFAQ Languages Contact Newsletter About
Weather : Europe Africa North America South America Asia Australia-Oceania Others

hue-vn, Da Nang, Da Nang International Airport

latitude: , longitude: Vietnam, elevation: 16-02N m


METAR: VVDN 250330Z 10006KT 050V140 8000 NSC 32/23 Q1010 NOSIG